Weather History for EHKD - November, 2012

Change the Weather History Date:

Tuesday, November 20, 2012

  Actual Average Record
Temperature  
Mean Temperature 48 °F -  
Max Temperature 53 °F 45 °F 53 °F (2003)
Min Temperature 43 °F 37 °F 24 °F (1998)
Degree Days  
Heating Degree Days 17    
Moisture  
Dew Point 47 °F    
Average Humidity 91    
Maximum Humidity 100    
Minimum Humidity 80    
Precipitation  
Precipitation 0.00 in 0.11 in - ()
Sea Level Pressure  
Sea Level Pressure 29.92 in    
Wind  
Wind Speed 14 mph ()    
Max Wind Speed 21 mph    
Max Gust Speed -    
Visibility 5.1 miles    
Events      
Averages and records for this station are not official NWS values.
T = Trace of Precipitation, MM = Missing Value Source: Averaged Metar Reports

Daily Weather History Graph

Daily Weather History Graph

Search for Another Location

Airport or City:

Trip Planner

Search our weather history database for the weather conditions in past years. The results will help you decide how hot, cold, wet, or windy it might be!

Date:

Astronomy

Nov. 20, 2012 Rise Set
Actual Time 8:13 AM CET 4:38 PM CET
Civil Twilight 7:34 AM CET 5:18 PM CET
Nautical Twilight 6:51 AM CET 6:00 PM CET
Astronomical Twilight 6:10 AM CET 6:41 PM CET
Moon 1:13 PM CET (11/20) No Moon Set
Length of Visible Light 9h 43m
Length of Day
8h 25m
Waxing Crescent, 48% of the Moon is Illuminated
Nov 20
Waxing Crescent
Nov 20
First Quarter
Nov 28
Full
Dec 6
Last Quarter
Dec 13
New

Hourly Weather History & Observations

Time (CET) Temp. Windchill Dew Point Humidity Pressure Visibility Wind Dir Wind Speed Gust Speed Precip Events Conditions
12:02 AM 50.0 °F - 46.4 °F 87% 29.92 in 6.2 mi SSW 18.4 mph - N/A   Overcast
12:06 AM 50.0 °F - 46.4 °F 87% 29.92 in 6.2 mi SSW 18.4 mph - N/A   Overcast
12:25 AM 50.0 °F - 48.2 °F 94% 29.92 in 5.0 mi SSW 16.1 mph - N/A   Overcast
12:32 AM 50.0 °F - 48.2 °F 94% 29.92 in 5.0 mi SSW 17.3 mph - N/A   Overcast
12:55 AM 50.0 °F - 48.2 °F 94% 29.92 in 5.0 mi SSW 13.8 mph - N/A   Mostly Cloudy
1:00 AM 50 °F - 47 °F 88% 29.94 in 5 mi SSW 13.4 mph - -   Mist
1:07 AM 50.0 °F - 48.2 °F 94% 29.92 in 5.0 mi SSW 13.8 mph - N/A   Overcast
1:25 AM 51.8 °F - 48.2 °F 88% 29.92 in 6.2 mi SSW 16.1 mph - N/A   Overcast
1:55 AM 51.8 °F - 48.2 °F 88% 29.92 in 5.0 mi SSW 17.3 mph - N/A   Overcast
1:57 AM 51.8 °F - 48.2 °F 88% 29.92 in 5.0 mi SSW 17.3 mph - N/A   Overcast
2:13 AM 51.8 °F - 48.2 °F 88% 29.92 in 5.0 mi SSW 18.4 mph - N/A   Overcast
2:17 AM 50.0 °F - 48.2 °F 94% 29.92 in 5.0 mi South 16.1 mph - N/A   Overcast
2:25 AM 50.0 °F - 48.2 °F 94% 29.92 in 4.3 mi South 16.1 mph - N/A   Overcast
2:27 AM 50.0 °F - 48.2 °F 94% 29.92 in 5.0 mi South 15.0 mph - N/A   Overcast
2:34 AM 50.0 °F - 48.2 °F 94% 29.92 in 4.3 mi South 13.8 mph - N/A   Overcast
2:38 AM 50.0 °F - 48.2 °F 94% 29.92 in 4.3 mi South 12.7 mph - N/A   Overcast
2:42 AM 50.0 °F - 48.2 °F 94% 29.92 in 3.7 mi South 12.7 mph - N/A   Overcast
2:55 AM 50.0 °F - 46.4 °F 87% 29.92 in 3.7 mi South 13.8 mph - N/A   Overcast
3:09 AM 48.2 °F - 46.4 °F 93% 29.92 in - South 12.7 mph - N/A   Overcast
3:25 AM 48.2 °F - 46.4 °F 93% 29.92 in - South 11.5 mph - N/A   Scattered Clouds
3:37 AM 48.2 °F - 46.4 °F 93% 29.92 in - South 10.4 mph - N/A   Partly Cloudy
3:41 AM 48.2 °F - 46.4 °F 93% 29.92 in - South 10.4 mph - N/A   Mist
3:48 AM 48.2 °F - 46.4 °F 93% 29.92 in - South 10.4 mph - N/A   Mist
3:55 AM 48.2 °F - 46.4 °F 93% 29.92 in - South 10.4 mph - N/A   Mist
3:59 AM 48.2 °F - 46.4 °F 93% 29.92 in - South 10.4 mph - N/A   Partly Cloudy
4:00 AM 47 °F - 46 °F 97% 29.93 in 2 mi South 11.2 mph - -   Mist
4:04 AM 48.2 °F - 46.4 °F 93% 29.92 in - South 10.4 mph - N/A   Partly Cloudy
4:11 AM 48.2 °F - 46.4 °F 93% 29.92 in - South 10.4 mph - N/A   Scattered Clouds
4:15 AM 48.2 °F - 46.4 °F 93% 29.92 in - South 10.4 mph - N/A   Mostly Cloudy
4:19 AM 48.2 °F - 46.4 °F 93% 29.92 in - South 9.2 mph - N/A   Overcast
4:25 AM 48.2 °F - 46.4 °F 93% 29.92 in - South 10.4 mph - N/A   Overcast
4:36 AM 48.2 °F - 46.4 °F 93% 29.92 in 2.5 mi South 10.4 mph - N/A   Mostly Cloudy
4:55 AM 46.4 °F 41.1 °F 46.4 °F 100% 29.92 in - South 11.5 mph - N/A   Mostly Cloudy
5:25 AM 46.4 °F 40.7 °F 46.4 °F 100% 29.92 in - South 12.7 mph - N/A   Partly Cloudy
5:55 AM 46.4 °F 40.7 °F 46.4 °F 100% 29.92 in - South 12.7 mph - N/A   Overcast
6:02 AM 46.4 °F 40.7 °F 46.4 °F 100% 29.92 in - South 12.7 mph - N/A   Mostly Cloudy
6:11 AM 46.4 °F 40.7 °F 46.4 °F 100% 29.92 in 2.2 mi South 12.7 mph - N/A   Partly Cloudy
6:15 AM 46.4 °F 40.4 °F 46.4 °F 100% 29.92 in - South 13.8 mph - N/A   Mostly Cloudy
6:25 AM 46.4 °F 40.4 °F 46.4 °F 100% 29.92 in - South 13.8 mph - N/A   Overcast
6:35 AM 48.2 °F - 46.4 °F 93% 29.92 in - South 15.0 mph - N/A   Overcast
6:55 AM 48.2 °F - 46.4 °F 93% 29.92 in 2.8 mi South 15.0 mph - N/A   Scattered Clouds
7:00 AM 47 °F - 46 °F 95% 29.93 in 3 mi South 15.7 mph - -   Mist
7:15 AM 48.2 °F - 46.4 °F 93% 29.92 in 3.1 mi South 13.8 mph - N/A   Partly Cloudy
7:25 AM 48.2 °F - 46.4 °F 93% 29.92 in 3.1 mi South 16.1 mph - N/A   Scattered Clouds
7:30 AM 48.2 °F - 46.4 °F 93% 29.92 in - South 15.0 mph - N/A   Overcast
7:34 AM 46.4 °F 40.4 °F 46.4 °F 100% 29.92 in 3.1 mi South 13.8 mph - N/A   Overcast
7:47 AM 48.2 °F - 46.4 °F 93% 29.92 in 3.1 mi South 12.7 mph - N/A   Overcast
7:55 AM 48.2 °F - 46.4 °F 93% 29.92 in 3.1 mi South 12.7 mph - N/A   Overcast
7:57 AM 48.2 °F - 46.4 °F 93% 29.92 in - South 13.8 mph - N/A   Overcast
8:02 AM 48.2 °F - 46.4 °F 93% 29.92 in 3.1 mi South 13.8 mph - N/A   Overcast
8:09 AM 48.2 °F - 46.4 °F 93% 29.92 in - South 13.8 mph - N/A   Overcast
8:25 AM 46.4 °F 40.7 °F 46.4 °F 100% 29.92 in - South 12.7 mph - N/A   Overcast
8:29 AM 46.4 °F 40.4 °F 46.4 °F 100% 29.92 in 3.1 mi South 13.8 mph - N/A   Overcast
8:34 AM 48.2 °F - 46.4 °F 93% 29.92 in - South 13.8 mph - N/A   Overcast
8:41 AM 48.2 °F - 46.4 °F 93% 29.92 in 3.1 mi South 15.0 mph - N/A   Overcast
8:55 AM 48.2 °F - 46.4 °F 93% 29.92 in 3.7 mi South 15.0 mph - N/A   Mostly Cloudy
9:25 AM 48.2 °F - 46.4 °F 93% 29.92 in 3.7 mi South 15.0 mph - N/A   Overcast
9:55 AM 48.2 °F - 46.4 °F 93% 29.92 in 3.7 mi South 16.1 mph - N/A   Overcast
10:00 AM 49 °F - 46 °F 87% 29.94 in 4 mi South 15.7 mph - -   Mist
10:12 AM 50.0 °F - 46.4 °F 87% 29.92 in 5.0 mi South 17.3 mph - N/A   Overcast
10:16 AM 48.2 °F - 46.4 °F 93% 29.92 in 4.3 mi South 17.3 mph - N/A   Overcast
10:25 AM 48.2 °F - 46.4 °F 93% 29.92 in 5.0 mi South 17.3 mph - N/A   Scattered Clouds
10:27 AM 48.2 °F - 46.4 °F 93% 29.92 in 4.3 mi South 16.1 mph - N/A   Partly Cloudy
10:32 AM 48.2 °F - 46.4 °F 93% 29.92 in 5.0 mi South 16.1 mph - N/A   Mist
10:36 AM 48.2 °F - 46.4 °F 93% 29.92 in 4.3 mi South 16.1 mph - N/A   Mist
10:41 AM 50.0 °F - 46.4 °F 87% 29.92 in 5.0 mi South 16.1 mph - N/A   Mist
10:45 AM 50.0 °F - 46.4 °F 87% 29.92 in 4.3 mi South 16.1 mph - N/A   Mist
10:49 AM 50.0 °F - 46.4 °F 87% 29.92 in 5.0 mi South 16.1 mph - N/A   Mist
10:55 AM 50.0 °F - 46.4 °F 87% 29.95 in 5.0 mi South 16.1 mph - N/A   Mist
11:06 AM 50.0 °F - 46.4 °F 87% 29.95 in 5.6 mi South 18.4 mph - N/A   Scattered Clouds
11:25 AM 51.8 °F - 48.2 °F 88% 29.92 in 6.2 mi South 18.4 mph - N/A   Overcast
11:55 AM 51.8 °F - 48.2 °F 88% 29.92 in 6.2 mi South 20.7 mph - N/A   Overcast
12:25 PM 51.8 °F - 48.2 °F 88% 29.92 in 6.2 mi South 17.3 mph - N/A   Mostly Cloudy
12:55 PM 51.8 °F - 48.2 °F 88% 29.92 in 6.2 mi South 16.1 mph - N/A   Mostly Cloudy
1:00 PM 51 °F - 47 °F 80% 29.93 in 7 mi South 15.7 mph - -   Partly Cloudy
1:25 PM 53.6 °F - 48.2 °F 82% 29.92 in 6.2 mi South 16.1 mph - N/A   Partly Cloudy
1:55 PM 53.6 °F - 48.2 °F 82% 29.92 in 6.2 mi South 17.3 mph - N/A   Partly Cloudy
2:12 PM 53.6 °F - 48.2 °F 82% 29.92 in 6.2 mi South 16.1 mph - N/A   Mostly Cloudy
2:25 PM 53.6 °F - 48.2 °F 82% 29.92 in 6.2 mi South 16.1 mph - N/A   Mostly Cloudy
2:35 PM 53.6 °F - 48.2 °F 82% 29.92 in 6.2 mi South 18.4 mph - N/A   Mostly Cloudy
2:55 PM 51.8 °F - 48.2 °F 88% 29.92 in 6.2 mi South 16.1 mph - N/A   Overcast
3:00 PM 51.8 °F - 48.2 °F 88% 29.92 in 6.2 mi South 17.3 mph - N/A   Overcast
3:25 PM 51.8 °F - 48.2 °F 88% 29.92 in 6.2 mi South 16.1 mph - N/A   Overcast
3:55 PM 51.8 °F - 46.4 °F 82% 29.92 in 6.2 mi South 16.1 mph - N/A   Mostly Cloudy
4:00 PM 51 °F - 47 °F 82% 29.92 in 7 mi South 15.7 mph - -   Mostly Cloudy
4:25 PM 51.8 °F - 46.4 °F 82% 29.92 in 6.2 mi South 13.8 mph - N/A   Overcast
4:55 PM 50.0 °F - 46.4 °F 87% 29.92 in 6.2 mi South 13.8 mph - N/A   Partly Cloudy
5:16 PM 50.0 °F - 46.4 °F 87% 29.92 in 6.2 mi South 15.0 mph - N/A   Partly Cloudy
5:25 PM 50.0 °F - 46.4 °F 87% 29.92 in 6.2 mi South 15.0 mph - N/A   Mostly Cloudy
5:55 PM 50.0 °F - 46.4 °F 87% 29.92 in 6.2 mi South 12.7 mph - N/A   Overcast
6:25 PM 50.0 °F - 46.4 °F 87% 29.92 in 6.2 mi South 11.5 mph - N/A   Overcast
6:55 PM 50.0 °F - 46.4 °F 87% 29.92 in 6.2 mi South 13.8 mph - N/A   Overcast
7:00 PM 50 °F - 46 °F 83% 29.94 in 7 mi South 13.4 mph - -   Partly Cloudy
7:25 PM 50.0 °F - 46.4 °F 87% 29.92 in 6.2 mi South 12.7 mph - N/A   Overcast
7:55 PM 50.0 °F - 46.4 °F 87% 29.92 in 6.2 mi South 15.0 mph - N/A   Mostly Cloudy
8:25 PM 50.0 °F - 46.4 °F 87% 29.92 in 6.2 mi South 15.0 mph - N/A   Overcast
8:55 PM 50.0 °F - 46.4 °F 87% 29.92 in 6.2 mi South 13.8 mph - N/A   Overcast
9:25 PM 50.0 °F - 46.4 °F 87% 29.92 in 6.2 mi South 13.8 mph - N/A   Overcast
9:55 PM 48.2 °F - 46.4 °F 93% 29.92 in 6.2 mi South 12.7 mph - N/A   Overcast
10:00 PM 49 °F - 46 °F 83% 29.94 in 8 mi South 13.4 mph - -   Overcast
10:25 PM 48.2 °F - 44.6 °F 87% 29.92 in 6.2 mi South 15.0 mph - N/A   Overcast
10:46 PM 48.2 °F - 44.6 °F 87% 29.92 in 6.2 mi South 13.8 mph - N/A   Overcast
10:55 PM 48.2 °F - 44.6 °F 87% 29.92 in 6.2 mi South 12.7 mph - N/A   Overcast
11:25 PM 48.2 °F - 44.6 °F 87% 29.92 in 6.2 mi South 10.4 mph - N/A   Overcast
11:55 PM 46.4 °F 41.9 °F 44.6 °F 93% 29.92 in 6.2 mi South 9.2 mph - N/A   Overcast